Home > Time Zones > World Clock > Weather > Egypt > Cairo > Past weeks

Flag for Egypt Weather past 2 weeks in Cairo, Egypt

Now
82 °F

Scattered clouds.


Feels Like: 82 °F
Forecast: 67 / 87 °F
Wind: 13 mph from North

Location: Cairo Airport

Current Time: Oct 1, 2014 at 5:08:03 PM

Latest Report: Oct 1, 2014 at 4:30 PM


Visibility: N/A

Pressure: 29.95 "Hg

Humidity: 42%

Dew point: 57 °F

Location of CairoLocation

Historic Weather in Cairo — Graph

°F

Cairo temperature yesterday

Maximum temperature yesterday: 82 °F (at 12:30 PM)
Minimum temperature yesterday: 70 °F (at 5:00 AM)
Average temperature yesterday: 77 °F

Past Weeks' High & Low Weather Summary

 TemperatureHumidityPressure
High102 °F (Sep 27, 2:00 PM)83% (Sep 23, 6:00 AM)30.04 "Hg (Sep 23, 6:00 AM)
Low70 °F (Sep 30, 5:00 AM)17% (Sep 16, 5:00 PM)29.74 "Hg (Sep 17, 12:30 AM)
Average82 °F52%29.95 "Hg
* Reported Sep 16 5:00 PM — Oct 1 4:00 PM, Cairo, Weather by CustomWeather, © 2014

Note: Actual official high and low records may vary slightly from our data, if they occured in-between our weather recording intervals... More about our weather records

Advertising

Cairo weather history for previous 24 hours

 ConditionsComfort  
Time TempWeatherWind HumidityBarometerVisibility
4:00 PM
Oct 1
82 °FScattered clouds.12 mph40%29.95 "HgN/A
3:30 PM82 °FScattered clouds.13 mph40%29.95 "HgN/A
3:00 PM84 °FScattered clouds.10 mph35%29.95 "HgN/A
2:30 PM84 °FScattered clouds.10 mph37%29.95 "HgN/A
2:00 PM84 °FScattered clouds.10 mph35%29.95 "HgN/A
1:30 PM82 °FScattered clouds.10 mph40%29.98 "HgN/A
1:00 PM82 °FScattered clouds.13 mph42%29.98 "HgN/A
12:30 PM81 °FScattered clouds.13 mph48%29.98 "HgN/A
12:00 PM81 °FScattered clouds.12 mph39%29.98 "HgN/A
11:30 AM81 °FScattered clouds.10 mph45%30.01 "HgN/A
11:00 AM81 °FScattered clouds.9 mph45%30.01 "HgN/A
10:30 AM79 °FScattered clouds.8 mph45%30.01 "HgN/A
10:00 AM79 °FScattered clouds.7 mph48%30.01 "HgN/A
9:30 AM79 °FScattered clouds.10 mph51%30.01 "HgN/A
9:00 AM77 °FScattered clouds.9 mph54%30.01 "HgN/A
8:30 AM75 °FHaze.6 mph61%30.01 "Hg2 mi
8:00 AM73 °FHaze.3 mph69%30.01 "Hg2 mi
7:30 AM73 °FScattered clouds.3 mph65%30.01 "Hg1 mi
7:00 AM72 °FScattered clouds.3 mph69%30.01 "Hg1 mi
6:30 AM70 °FScattered clouds.No wind73%30.01 "Hg1 mi
6:00 AM70 °FScattered clouds.No wind69%30.01 "Hg1 mi
5:30 AM70 °FPassing clouds.2 mph69%30.01 "Hg1 mi
5:00 AM72 °FPassing clouds.6 mph69%29.98 "Hg1 mi
4:30 AM70 °FHaze.3 mph69%29.98 "Hg1 mi
4:00 AM72 °FHaze.3 mph65%29.98 "Hg1 mi
3:30 AM72 °FHaze.6 mph65%29.98 "Hg1 mi
3:00 AM72 °FHaze.6 mph65%29.98 "Hg1 mi
2:30 AM72 °FHaze.6 mph65%29.98 "Hg2 mi
2:00 AM72 °FClear.6 mph65%29.98 "Hg4 mi
1:30 AM73 °FClear.6 mph61%29.98 "Hg10 mi
1:00 AM73 °FClear.6 mph65%29.98 "Hg10 mi
12:30 AM73 °FClear.7 mph61%29.98 "Hg10 mi
12:00 AM75 °FClear.7 mph61%30.01 "Hg10 mi
11:30 PM
Sep 30
75 °FClear.7 mph61%29.98 "Hg10 mi
11:00 PM75 °FClear.7 mph61%30.01 "Hg10 mi
10:30 PM75 °FClear.7 mph61%30.01 "Hg10 mi
10:00 PM75 °FClear.10 mph57%30.01 "Hg10 mi
9:30 PM75 °FClear.10 mph54%30.01 "Hg10 mi
9:00 PM77 °FClear.10 mph51%30.01 "Hg10 mi
8:30 PM77 °FClear.12 mph51%30.01 "Hg10 mi
8:00 PM79 °FClear.12 mph48%30.01 "Hg10 mi
7:30 PM79 °FClear.13 mph51%30.01 "Hg10 mi
7:00 PM79 °FClear.12 mph48%29.98 "Hg10 mi
6:30 PM81 °FPassing clouds.12 mph45%29.98 "HgN/A
6:00 PM82 °FPassing clouds.7 mph35%29.95 "HgN/A
5:30 PM82 °FScattered clouds.6 mph35%29.95 "HgN/A
5:00 PM82 °FScattered clouds.6 mph35%29.95 "HgN/A
Weather by CustomWeather, © 2014

See weather overviewHow to use our weather pages